Total_Precipitation_Accumulation
0.03 0.06 0.11 0.11 0.08 0.07 0.07 0.05 0.05 0.07 0.11 0.21 0.32 0.36 0.35 0.37 0.42 0.43 0.38 0.38 0.49 0.60 0.64 0.61 0.58 0.57 0.59 0.71 0.83 1.03 1.24 1.29 1.30 1.40 1.52 1.66 1.83 1.87 1.88 1.90 1.89 1.99 1.95 1.85
0.05 0.07 0.09 0.07 0.07 0.06 0.06 0.05 0.06 0.08 0.13 0.20 0.30 0.33 0.29 0.31 0.33 0.38 0.42 0.43 0.49 0.65 0.76 0.80 0.84 0.83 0.87 0.99 1.18 1.44 1.71 1.80 1.86 1.92 2.01 2.08 2.13 2.12 2.18 2.19 2.14 2.06 1.98 1.99
0.10 0.10 0.11 0.09 0.08 0.08 0.08 0.09 0.09 0.13 0.19 0.25 0.33 0.35 0.41 0.41 0.40 0.50 0.56 0.60 0.64 0.78 0.86 0.96 0.99 1.02 1.12 1.21 1.42 1.62 1.76 1.82 1.91 1.99 2.07 2.13 2.17 2.21 2.17 2.17 2.10 2.00 2.03 2.08
0.18 0.20 0.21 0.13 0.15 0.16 0.17 0.20 0.23 0.23 0.26 0.33 0.42 0.44 0.49 0.51 0.48 0.51 0.62 0.75 0.77 0.85 0.91 0.95 1.05 1.17 1.27 1.30 1.34 1.56 1.72 1.78 1.77 1.78 1.84 1.97 2.09 2.08 1.99 1.97 1.95 1.93 1.94 1.86
0.31 0.27 0.28 0.27 0.26 0.26 0.31 0.39 0.36 0.44 0.49 0.48 0.49 0.50 0.52 0.56 0.70 0.69 0.67 0.72 0.77 0.88 0.92 0.96 1.01 1.09 1.07 1.12 1.22 1.35 1.42 1.51 1.54 1.63 1.74 1.83 1.91 1.96 1.97 1.92 1.75 1.63 1.56 1.53
0.43 0.43 0.41 0.41 0.44 0.35 0.39 0.67 0.67 0.71 0.75 0.70 0.69 0.77 0.70 0.56 0.58 0.63 0.65 0.66 0.73 0.84 0.89 0.94 0.97 0.99 1.02 1.10 1.24 1.41 1.54 1.62 1.70 1.79 1.88 1.86 1.91 1.97 1.94 1.86 1.81 1.76 1.59 1.47
0.45 0.49 0.52 0.48 0.44 0.44 0.72 0.96 0.97 1.04 1.03 0.93 0.92 0.88 0.78 0.62 0.56 0.56 0.60 0.64 0.69 0.80 0.93 0.95 0.98 1.05 1.16 1.26 1.35 1.48 1.56 1.62 1.66 1.73 1.80 1.84 1.93 1.87 1.85 1.82 1.75 1.65 1.53 1.47
0.65 0.81 0.95 0.72 0.64 0.83 0.99 0.78 0.83 1.00 1.18 1.18 1.10 0.96 0.80 0.65 0.56 0.53 0.50 0.55 0.69 0.79 0.89 0.98 1.08 1.21 1.29 1.28 1.32 1.43 1.59 1.66 1.67 1.71 1.72 1.73 1.78 1.75 1.72 1.69 1.61 1.52 1.47 1.46
0.95 1.10 1.02 0.86 0.86 0.83 0.91 1.04 1.09 1.16 1.30 1.33 1.19 1.00 0.89 0.75 0.64 0.56 0.52 0.55 0.61 0.70 0.85 0.94 1.09 1.23 1.33 1.38 1.47 1.50 1.59 1.71 1.76 1.73 1.71 1.76 1.86 1.89 1.79 1.71 1.63 1.52 1.42 1.30
1.14 1.28 1.09 0.92 0.93 0.92 1.00 1.17 1.21 1.15 1.14 1.15 1.08 0.97 1.00 0.97 0.81 0.77 0.73 0.69 0.72 0.80 0.87 0.94 1.03 1.15 1.26 1.37 1.46 1.59 1.65 1.70 1.77 1.78 1.79 1.82 1.88 1.85 1.78 1.68 1.58 1.49 1.38 1.29
1.34 1.52 1.42 1.26 1.16 1.09 1.12 1.09 1.17 1.09 1.10 1.07 1.02 0.96 0.98 1.04 1.06 1.00 0.90 0.86 0.87 0.91 0.96 0.99 1.07 1.16 1.30 1.40 1.46 1.56 1.67 1.72 1.71 1.71 1.76 1.79 1.76 1.71 1.61 1.52 1.46 1.39 1.27 1.22
1.65 1.65 1.74 1.64 1.36 1.20 1.24 1.21 1.17 1.11 1.15 1.17 1.10 1.02 1.01 1.10 1.11 1.07 0.99 0.93 0.93 0.95 0.97 1.00 1.07 1.18 1.26 1.41 1.56 1.65 1.65 1.56 1.51 1.43 1.43 1.45 1.44 1.46 1.50 1.36 1.36 1.27 1.19 1.10
1.36 1.58 1.70 1.58 1.39 1.39 1.36 1.37 1.35 1.31 1.26 1.25 1.31 1.25 1.12 1.06 1.05 1.01 0.99 0.99 0.97 0.98 1.00 1.06 1.14 1.17 1.16 1.21 1.36 1.52 1.53 1.44 1.38 1.35 1.33 1.28 1.24 1.25 1.31 1.31 1.24 1.15 1.17 1.10
1.23 1.43 1.68 1.58 1.51 1.46 1.40 1.47 1.47 1.47 1.48 1.41 1.41 1.38 1.24 1.13 1.08 1.06 1.02 0.92 0.86 0.86 0.91 0.99 1.06 1.14 1.16 1.15 1.22 1.30 1.36 1.39 1.29 1.22 1.26 1.25 1.21 1.20 1.21 1.23 1.22 1.14 1.10 1.07
1.25 1.27 1.37 1.34 1.36 1.41 1.37 1.37 1.44 1.56 1.62 1.59 1.52 1.40 1.24 1.19 1.15 1.09 0.97 0.88 0.86 0.89 0.86 0.89 0.95 0.98 0.99 1.07 1.14 1.16 1.20 1.20 1.16 1.14 1.16 1.16 1.16 1.13 1.12 1.12 1.16 1.11 1.03 1.05
1.22 1.14 1.14 1.30 1.37 1.40 1.46 1.44 1.40 1.39 1.34 1.34 1.34 1.31 1.21 1.12 1.06 1.02 0.95 0.92 0.95 0.96 0.91 0.88 0.88 0.88 0.86 0.90 1.02 1.05 1.04 1.16 1.06 1.04 1.08 1.11 1.15 1.17 1.14 1.15 1.18 1.15 1.08 1.06
1.21 1.17 1.19 1.25 1.27 1.32 1.39 1.34 1.27 1.19 1.18 1.16 1.15 1.14 1.12 1.14 1.08 1.03 1.02 0.98 0.95 0.99 1.00 0.99 0.96 0.91 0.90 0.92 0.97 1.01 0.96 0.97 1.00 0.93 0.94 0.99 1.02 1.09 1.10 1.11 1.13 1.11 1.03 1.00
1.14 1.06 1.14 1.23 1.19 1.19 1.14 1.11 1.04 0.93 0.97 1.04 1.10 1.11 1.06 1.04 1.00 1.02 1.03 0.96 0.89 0.91 0.93 0.96 0.93 0.89 0.86 0.86 0.90 0.98 0.93 0.87 0.86 0.88 0.97 0.99 1.00 1.05 1.07 1.06 1.08 1.09 1.10 1.09
1.00 0.97 0.96 0.96 0.97 0.98 0.92 0.94 0.91 0.87 0.83 0.90 0.99 1.02 1.01 1.01 0.96 0.90 0.89 0.92 0.94 0.95 0.87 0.80 0.83 0.78 0.80 0.86 0.92 0.95 0.97 0.96 0.94 0.96 1.05 1.10 1.10 1.10 1.10 1.10 1.11 1.12 1.10 1.09
0.91 0.93 0.88 0.82 0.82 0.90 0.91 0.87 0.79 0.77 0.78 0.81 0.91 0.97 0.97 0.94 0.92 0.92 0.95 1.00 0.99 0.88 0.73 0.69 0.65 0.66 0.66 0.72 0.81 0.82 0.90 0.94 0.93 0.98 1.04 1.06 1.08 1.10 1.06 1.03 1.03 1.05 1.10 1.17
0.96 0.87 0.83 0.84 0.80 0.81 0.90 0.89 0.85 0.85 0.81 0.81 0.87 0.89 0.91 0.88 0.81 0.83 0.94 1.00 0.92 0.75 0.65 0.73 0.69 0.63 0.57 0.61 0.64 0.63 0.74 0.85 0.93 0.96 0.96 0.99 1.00 0.97 0.96 0.98 1.04 1.12 1.17 1.22
1.09 0.95 0.85 0.81 0.83 0.87 0.88 0.88 0.87 0.91 0.95 1.01 0.98 0.92 0.91 0.91 0.85 0.85 0.86 0.92 0.85 0.81 0.65 0.61 0.66 0.70 0.66 0.58 0.53 0.60 0.70 0.82 0.89 0.91 0.90 0.93 0.99 0.99 0.96 1.00 1.08 1.10 1.14 1.16
1.02 0.94 0.90 0.86 0.84 0.87 0.88 0.87 0.87 0.86 0.91 1.04 1.10 1.08 1.05 1.00 0.96 0.96 0.98 0.88 0.79 0.79 0.69 0.67 0.70 0.71 0.67 0.59 0.58 0.63 0.67 0.72 0.74 0.76 0.77 0.82 0.88 0.95 0.98 0.95 0.91 0.91 0.97 1.02
1.03 0.95 0.91 0.81 0.77 0.85 0.94 0.93 0.88 0.84 0.83 0.91 0.98 1.03 1.06 1.05 1.03 0.97 1.05 1.12 1.00 0.82 0.72 0.77 0.71 0.64 0.63 0.63 0.66 0.66 0.65 0.65 0.68 0.76 0.82 0.85 0.89 0.92 0.90 0.86 0.80 0.77 0.82 0.93
1.06 1.00 0.97 0.94 0.93 0.92 0.91 0.89 0.86 0.84 0.82 0.87 0.86 0.89 0.96 1.01 1.09 1.12 1.11 1.06 1.03 0.90 0.76 0.70 0.67 0.61 0.56 0.61 0.64 0.65 0.64 0.63 0.65 0.69 0.75 0.81 0.83 0.84 0.83 0.81 0.79 0.76 0.76 0.82
1.16 1.08 1.02 1.02 1.02 0.94 0.86 0.87 0.95 0.97 0.95 0.96 0.91 0.85 0.86 0.92 1.02 1.10 1.08 1.00 0.87 0.75 0.67 0.65 0.59 0.56 0.53 0.57 0.62 0.66 0.67 0.69 0.68 0.63 0.61 0.63 0.62 0.60 0.59 0.61 0.66 0.73 0.76 0.73
1.18 1.08 1.00 0.94 0.91 0.86 0.87 0.91 0.96 1.02 1.04 0.99 0.94 0.85 0.85 0.93 0.99 0.99 0.91 0.86 0.76 0.68 0.59 0.50 0.46 0.47 0.48 0.49 0.51 0.52 0.55 0.57 0.60 0.67 0.79 0.83 0.66 0.52 0.49 0.52 0.55 0.61 0.68 0.67